SCP
0 0 0 0 0 0 0 0 0 0 0 0 0 0 0 0 0 0 0 0 0 0 0 0 0 0 0 0 0 -0 -0 -0
0 0 0 0 0 0 0 0 0 0 0 0 0 0 0 0 0 0 0 0 0 0 0 0 0 0 0 0 0 -0 -0 -0
0 0 0 0 0 0 0 0 0 0 0 0 0 0 0 0 0 0 0 0 0 0 0 0 0 0 0 0 0 0 -0 -0
0 0 0 0 0 0 0 0 0 0 0 0 0 0 0 0 0 0 0 0 0 0 0 0 -0 -0 0 0 0 0 0 -0
0 0 0 0 0 0 0 0 0 0 0 0 0 0 0 0 0 0 0 0 0 0 0 0 -0 -0 0 -0 0 -0 0 0
0 0 0 0 0 0 0 0 0 0 0 0 0 0 0 0 0 0 0 0 0 0 0 0 0 -0 0 -0 -0 -0 -0 0
0 0 0 0 0 0 0 0 0 0 0 0 0 0 0 0 0 0 0 0 0 0 0 0 0 -0 0 0 -0 -0 -0 0
0 0 0 0 0 0 0 0 0 0 0 0 0 0 0 0 0 0 0 0 0 0 0 0 0 0 0 0 0 -0 -0 0
0 0 0 0 0 0 0 0 0 0 0 0 0 0 0 0 0 0 0 0 0 0 0 0 0 0 0 0 0 0 -0 0
0 0 0 0 0 0 0 0 0 0 0 0 0 0 0 0 0 -0 -0 0 0 0 0 0 0 0 0 0 0 0 -0 -0
0 0 0 0 0 0 0 0 0 0 0 0 0 0 0 0 0 -0 -0 0 0 0 0 0 0 0 0 0 0 0 -0 -0
0 0 0 0 0 0 0 0 0 0 0 0 0 0 0 0 0 -0 -0 0 0 0 0 0 0 0 0 0 0 0 0 -0
0 0 0 0 0 0 0 0 0 0 0 0 0 0 0 0 0 -0 -0 0 0 0 0 -0 0 0 0 0 0 0 0 0
0 0 0 0 0 0 0 0 0 0 0 0 0 0 0 -0 -0 -0 -0 0 0 0 -0 -0 0 0 0 0 0 0 0 0
0 0 0 0 0 0 0 0 0 0 0 0 0 0 0 -0 -0 -0 -0 0 0 -0 0 0 -0 0 0 0 0 0 0 0
0 0 0 0 0 0 0 0 0 0 0 0 0 0 0 -0 -0 -0 -0 -0 -0 -0 -0 0 -0 -0 0 0 0 0 0 0
0 0 0 0 0 0 0 0 0 0 0 0 0 0 -0 -0 -0 -0 0 0 -0 -0 -0 0 -0 0 0 0 0 0 0 0
0 0 0 0 0 0 0 0 0 0 0 0 0 0 -0 -0 -0 -0 -0 0 0 -0 -0 -0 -0 -0 0 0 0 0 0 0
0 0 0 0 0 0 0 0 0 0 0 0 0 0 -0 -0 -0 -0 -0 -0 0 -0 -0 -0 -0 -0 0 0 0 0 0 0
0 0 0 0 0 0 0 0 0 0 0 0 0 -0 -0 -0 -0 -0 -0 -0 -0 0 -0 -0 -0 -0 -0 -0 0 0 0 0
Wind_Speed_500mb
15 20 27 41 52 57 63 71 77 81 86 93 98 98 101 107 109 101 95 92 91 87 82 81 79 73 71 66 55 78 72 62
17 20 32 42 50 59 66 72 79 84 90 97 102 101 101 104 105 98 93 90 92 89 81 75 78 72 76 67 51 72 68 64
14 23 35 44 54 62 69 74 80 86 95 100 105 105 102 105 101 97 94 86 89 86 78 83 79 69 74 72 53 63 70 55
17 26 38 48 57 64 70 76 81 88 94 100 103 104 103 105 103 102 93 90 87 76 78 77 73 67 71 78 64 41 54 55
19 29 38 48 59 67 72 78 83 90 96 100 103 103 104 104 105 103 92 87 80 75 74 74 72 66 64 76 76 57 48 54
20 26 37 52 62 68 74 79 86 92 96 100 100 101 105 106 104 101 90 83 77 75 71 71 73 66 60 69 79 74 57 53
18 26 42 55 63 69 74 79 87 92 96 99 101 104 106 105 103 94 84 78 72 68 67 67 69 65 63 59 67 76 70 60
18 31 44 51 58 67 73 80 86 91 95 99 103 105 106 103 98 88 82 77 71 69 64 67 68 66 60 63 64 76 83 78
18 31 40 48 56 64 70 76 84 91 95 97 100 103 103 101 94 88 85 82 77 74 68 70 67 65 59 60 61 72 90 91
19 29 39 48 56 63 70 76 82 88 93 94 96 100 99 99 96 88 85 81 77 69 69 72 67 58 57 55 63 72 78 87
18 28 39 47 54 62 69 75 81 87 90 91 91 92 96 97 92 85 81 78 70 63 59 65 67 56 52 52 56 69 72 87
18 28 39 46 53 60 66 73 79 83 86 86 86 91 93 92 88 83 79 72 68 61 61 58 65 62 42 51 59 64 63 69
19 26 36 45 53 57 62 71 76 80 81 82 84 89 91 92 88 81 72 72 70 69 68 64 56 52 52 36 50 58 63 61
19 25 32 40 50 57 60 67 73 76 78 80 83 86 89 91 85 79 71 69 74 72 71 77 68 58 38 36 47 57 58 60
17 24 30 39 45 52 59 63 68 72 74 77 81 85 88 88 80 70 67 74 73 72 77 83 81 66 49 46 49 37 54 64
17 21 27 37 43 49 54 60 65 68 70 73 76 81 86 86 77 68 63 60 62 69 71 78 89 75 70 71 60 41 33 44
15 17 25 32 40 44 48 53 59 63 66 70 73 76 81 87 93 79 61 57 51 51 63 71 61 62 72 76 58 37 45 51
13 15 23 29 35 39 43 47 52 58 62 65 67 71 77 82 89 101 100 84 70 64 69 64 58 58 63 62 51 37 36 54
12 12 19 25 31 33 37 40 45 50 56 60 62 65 70 75 80 85 95 106 106 96 80 70 62 59 62 26 13 30 35 46
11 10 14 22 25 26 31 37 43 48 52 55 56 58 63 69 75 81 88 96 101 108 110 94 77 67 68 62 56 46 37 29
Wind_Direction_500mb
274 303 321 332 332 332 331 330 330 328 328 328 326 326 325 323 322 319 315 307 309 304 286 279 276 263 260 266 268 263 278 278
269 308 330 327 330 333 333 332 331 331 329 328 326 327 325 324 324 320 314 307 308 304 298 288 277 267 255 259 269 265 271 279
273 319 319 324 332 335 334 334 333 331 329 328 327 326 325 327 325 319 315 309 305 300 293 287 282 274 255 255 261 261 263 273
269 308 319 328 333 334 335 334 332 330 329 327 327 326 328 329 325 322 317 312 311 299 295 291 284 275 257 253 252 254 275 268
275 310 322 329 333 336 334 334 331 330 329 327 328 330 330 330 328 322 319 315 313 304 297 291 284 275 265 254 251 254 256 268
277 309 323 332 334 332 333 332 330 330 329 330 331 332 333 331 329 325 323 318 312 304 301 294 285 274 263 258 252 252 252 267
277 318 333 335 332 331 331 331 330 330 332 333 334 335 333 333 330 326 327 321 313 308 304 299 291 282 265 263 262 251 249 252
310 330 333 330 329 329 331 331 330 332 334 336 338 336 335 335 332 331 331 323 317 312 307 301 297 292 276 266 260 253 247 250
315 329 326 327 328 329 331 331 333 334 337 339 338 337 336 337 334 338 333 325 317 315 314 306 297 292 276 263 256 258 248 245
321 324 324 327 327 329 332 334 335 337 339 341 341 339 339 341 340 340 329 326 319 316 315 311 304 292 280 258 244 249 252 245
310 321 322 324 328 331 333 334 338 339 341 344 342 342 344 346 342 340 332 325 319 315 322 320 313 298 280 261 248 249 254 243
304 318 321 324 328 334 335 336 339 340 343 344 346 348 350 346 347 341 333 328 328 322 317 325 326 323 282 257 246 249 251 251
294 314 321 326 330 336 338 338 339 343 344 347 352 355 353 351 351 343 340 333 331 331 326 321 322 329 317 273 240 240 246 241
295 313 321 330 333 337 340 339 342 345 347 352 357 359 360 358 353 343 343 336 336 331 326 324 326 319 334 300 268 245 244 245
288 310 327 333 339 340 340 343 345 347 351 356 359 2 4 5 0 346 343 343 336 334 331 331 323 318 325 321 304 285 245 246
281 309 329 335 342 341 345 347 349 352 356 359 3 5 7 8 8 353 348 345 338 337 337 329 321 317 317 311 300 285 274 267
275 310 329 338 342 345 350 352 352 355 359 4 5 8 10 10 11 20 4 358 354 347 346 333 323 321 318 313 294 264 249 249
264 311 330 340 344 349 353 357 357 359 3 7 8 11 13 15 16 12 21 25 17 5 0 355 347 339 335 316 300 280 235 246
263 310 332 343 347 352 357 356 360 4 6 10 11 13 17 18 20 21 20 17 19 27 9 9 9 8 6 359 258 209 220 223
258 303 336 345 347 355 3 0 1 7 9 12 14 16 19 21 23 26 27 26 25 24 24 31 33 30 42 61 64 64 74 81
Wind_Speed_850mb
15 20 27 41 52 57 63 71 77 81 86 93 98 98 101 107 109 101 95 92 91 87 82 81 79 73 71 66 55 78 72 62
17 20 32 42 50 59 66 72 79 84 90 97 102 101 101 104 105 98 93 90 92 89 81 75 78 72 76 67 51 72 68 64
14 23 35 44 54 62 69 74 80 86 95 100 105 105 102 105 101 97 94 86 89 86 78 83 79 69 74 72 53 63 70 55
17 26 38 48 57 64 70 76 81 88 94 100 103 104 103 105 103 102 93 90 87 76 78 77 73 67 71 78 64 41 54 55
19 29 38 48 59 67 72 78 83 90 96 100 103 103 104 104 105 103 92 87 80 75 74 74 72 66 64 76 76 57 48 54
20 26 37 52 62 68 74 79 86 92 96 100 100 101 105 106 104 101 90 83 77 75 71 71 73 66 60 69 79 74 57 53
18 26 42 55 63 69 74 79 87 92 96 99 101 104 106 105 103 94 84 78 72 68 67 67 69 65 63 59 67 76 70 60
18 31 44 51 58 67 73 80 86 91 95 99 103 105 106 103 98 88 82 77 71 69 64 67 68 66 60 63 64 76 83 78
18 31 40 48 56 64 70 76 84 91 95 97 100 103 103 101 94 88 85 82 77 74 68 70 67 65 59 60 61 72 90 91
19 29 39 48 56 63 70 76 82 88 93 94 96 100 99 99 96 88 85 81 77 69 69 72 67 58 57 55 63 72 78 87
18 28 39 47 54 62 69 75 81 87 90 91 91 92 96 97 92 85 81 78 70 63 59 65 67 56 52 52 56 69 72 87
18 28 39 46 53 60 66 73 79 83 86 86 86 91 93 92 88 83 79 72 68 61 61 58 65 62 42 51 59 64 63 69
19 26 36 45 53 57 62 71 76 80 81 82 84 89 91 92 88 81 72 72 70 69 68 64 56 52 52 36 50 58 63 61
19 25 32 40 50 57 60 67 73 76 78 80 83 86 89 91 85 79 71 69 74 72 71 77 68 58 38 36 47 57 58 60
17 24 30 39 45 52 59 63 68 72 74 77 81 85 88 88 80 70 67 74 73 72 77 83 81 66 49 46 49 37 54 64
17 21 27 37 43 49 54 60 65 68 70 73 76 81 86 86 77 68 63 60 62 69 71 78 89 75 70 71 60 41 33 44
15 17 25 32 40 44 48 53 59 63 66 70 73 76 81 87 93 79 61 57 51 51 63 71 61 62 72 76 58 37 45 51
13 15 23 29 35 39 43 47 52 58 62 65 67 71 77 82 89 101 100 84 70 64 69 64 58 58 63 62 51 37 36 54
12 12 19 25 31 33 37 40 45 50 56 60 62 65 70 75 80 85 95 106 106 96 80 70 62 59 62 26 13 30 35 46
11 10 14 22 25 26 31 37 43 48 52 55 56 58 63 69 75 81 88 96 101 108 110 94 77 67 68 62 56 46 37 29
Wind_Direction_850mb
274 303 321 332 332 332 331 330 330 328 328 328 326 326 325 323 322 319 315 307 309 304 286 279 276 263 260 266 268 263 278 278
269 308 330 327 330 333 333 332 331 331 329 328 326 327 325 324 324 320 314 307 308 304 298 288 277 267 255 259 269 265 271 279
273 319 319 324 332 335 334 334 333 331 329 328 327 326 325 327 325 319 315 309 305 300 293 287 282 274 255 255 261 261 263 273
269 308 319 328 333 334 335 334 332 330 329 327 327 326 328 329 325 322 317 312 311 299 295 291 284 275 257 253 252 254 275 268
275 310 322 329 333 336 334 334 331 330 329 327 328 330 330 330 328 322 319 315 313 304 297 291 284 275 265 254 251 254 256 268
277 309 323 332 334 332 333 332 330 330 329 330 331 332 333 331 329 325 323 318 312 304 301 294 285 274 263 258 252 252 252 267
277 318 333 335 332 331 331 331 330 330 332 333 334 335 333 333 330 326 327 321 313 308 304 299 291 282 265 263 262 251 249 252
310 330 333 330 329 329 331 331 330 332 334 336 338 336 335 335 332 331 331 323 317 312 307 301 297 292 276 266 260 253 247 250
315 329 326 327 328 329 331 331 333 334 337 339 338 337 336 337 334 338 333 325 317 315 314 306 297 292 276 263 256 258 248 245
321 324 324 327 327 329 332 334 335 337 339 341 341 339 339 341 340 340 329 326 319 316 315 311 304 292 280 258 244 249 252 245
310 321 322 324 328 331 333 334 338 339 341 344 342 342 344 346 342 340 332 325 319 315 322 320 313 298 280 261 248 249 254 243
304 318 321 324 328 334 335 336 339 340 343 344 346 348 350 346 347 341 333 328 328 322 317 325 326 323 282 257 246 249 251 251
294 314 321 326 330 336 338 338 339 343 344 347 352 355 353 351 351 343 340 333 331 331 326 321 322 329 317 273 240 240 246 241
295 313 321 330 333 337 340 339 342 345 347 352 357 359 360 358 353 343 343 336 336 331 326 324 326 319 334 300 268 245 244 245
288 310 327 333 339 340 340 343 345 347 351 356 359 2 4 5 0 346 343 343 336 334 331 331 323 318 325 321 304 285 245 246
281 309 329 335 342 341 345 347 349 352 356 359 3 5 7 8 8 353 348 345 338 337 337 329 321 317 317 311 300 285 274 267
275 310 329 338 342 345 350 352 352 355 359 4 5 8 10 10 11 20 4 358 354 347 346 333 323 321 318 313 294 264 249 249
264 311 330 340 344 349 353 357 357 359 3 7 8 11 13 15 16 12 21 25 17 5 0 355 347 339 335 316 300 280 235 246
263 310 332 343 347 352 357 356 360 4 6 10 11 13 17 18 20 21 20 17 19 27 9 9 9 8 6 359 258 209 220 223
258 303 336 345 347 355 3 0 1 7 9 12 14 16 19 21 23 26 27 26 25 24 24 31 33 30 42 61 64 64 74 81